Location: Black Skies Observatory
(44.7549°N, 79.7179°W)
Time: 15:27:16
(UTC-04:00)

Envisat - Visible Passes

Search period start: 24 September 2021 00:00
Search period end: 04 October 2021 00:00
Orbit: 764 x 766 km, 98.2° (Epoch: 23 September)

Date Brightness Start Highest point End Pass type
(mag) Time Alt. Az. Time Alt. Az. Time Alt. Az.
24 Sep 5.3 05:37:56 10° NE 05:42:09 26° E 05:46:20 10° SSE visible
25 Sep 6.1 05:03:05 10° ENE 05:04:53 12° E 05:06:40 10° ESE visible
25 Sep 3.1 06:39:28 10° NNE 06:44:35 88° WNW 06:49:40 10° SSW visible
26 Sep 4.3 06:02:48 10° NNE 06:07:40 43° E 06:12:28 10° S visible
27 Sep 5.6 05:26:46 10° NE 05:30:32 21° E 05:34:17 10° SE visible
28 Sep 3.3 06:27:58 10° NNE 06:33:04 75° ESE 06:38:08 10° S visible
29 Sep 4.8 05:51:27 10° NNE 05:56:05 34° E 06:00:41 10° SSE visible
30 Sep 5.9 05:15:45 10° NE 05:18:53 16° E 05:22:02 10° SE visible
01 Oct 3.7 06:16:30 10° NNE 06:21:32 59° E 06:26:32 10° S visible
02 Oct 5.2 05:40:10 10° NE 05:44:29 27° E 05:48:47 10° SSE visible
03 Oct 6.1 05:05:01 10° ENE 05:07:14 13° E 05:09:27 10° ESE visible
03 Oct 3.0 06:41:46 10° NNE 06:46:53 82° WNW 06:51:58 10° SSW visible
